Voltar ao catálogo

COSMOS 926

AtivoMilitarPO
NORAD 10137·PAYLOAD·🇷🇺 Russia

Lançado Jul 8, 1977 de Plesetsk Cosmodrome

Loading…

Próximas Passagens (próximas 24 horas)

TLE

AtualizadoSource: Space-Track

Época: Sep 14, 2026, 13:59 UTC

1 10137U 77062A   26257.58323744  .00000043  00000-0  30353-4 0  9997
2 10137  82.9404 301.7163 0033679 119.5827  34.3295 13.72581632462481

Acompanhe COSMOS 926 em tempo real com AllMySat

Download on the App Store